Tracking 25963 objects as of 12-Aug-2022
HD Live streaming from Space Station
objects crossing your sky now

STARLINK-4341

Track STARLINK-4341 now!
10-day predictions
STARLINK-4341 is classified as:


NORAD ID: 53052
Int'l Code: 2022-077K
Perigee: 463.5 km
Apogee: 466.0 km
Inclination: 97.7 °
Period: 93.7 minutes
Semi major axis: 6835 km
RCS: Unknown
Launch date: July 11, 2022
Source: United States (US)
Launch site: AIR FORCE WESTERN TEST RANGE (AFWTR)
aabbcc
Your satellite tracking list
Your tracking list is empty




NASA's NSSDC Master Catalog

Two Line Element Set (TLE):
1 53052U 22077K   22224.58334491 -.01213868  00000-0 -38057-1 0  9997
2 53052  97.6552  44.6627 0001794  84.1262 181.5594 15.36118509  1300
Source of the keplerian elements: AFSPC